EUTELSAT 117 WEST B (41589 NORAD) Tracking and Keplerian Element Data

This shows tracking and keplerian element data for the satellite.

Feedback or suggestion? Click here.




ElementValue
Catalog41589
NameEUTELSAT 117 WEST B
Epoch Orbit1937
Epoch Day268.66349568
Epoch Year2021
RAAN339.0497
Inclination0.0214
Eccentricity2.62E-05
Argument of Perigee106.2812
Mean Anonmoly41.2354
Mean Motion1.00273009
Decay Rate-1.5E-07
L11 41589U 16038B 21268.66349568 -.00000015 00000-0 00000-0 0 9998
L22 41589 0.0214 339.0497 0000262 106.2812 41.2354 1.00273009 19372

Live tracking and technical data element details for EUTELSAT 117 WEST B (NORAD 41589). EUTELSAT 117 WEST B can be tracked NOW for your location showing map with azimuth and elevation plus other details from your city location.

Track the satellite on the map from your city or location and see movement details for azimuth, elevation, latitude, longitude, range, height, and movement on the map or in text.







IsCatalogInMostPopularTable: catalog: 41589, numindb: 572
Update: records affected: 1



GetName: 41589 EUTELSAT 117 WEST B

Hit Count: updated at: Mon, 27 Sep 2021 01:08:58 GMT